Simultaneous Nadir Overpasses (SNOs) Predictions

Prediction of SNOs between METOP-A and NOAA-19 Satellite Orbit:

Table of predicted SNOs for the next 14.0 days since TLE Epoch: 5/17/2016
Index Date (METOP-A) Time (METOP-A) Lat,Lon (METOP-A) SZA (METOP-A ) Date (NOAA-19) Time (NOAA-19) Lat,Lon (NOAA-19) SZA (NOAA-19 ) Distance(km) Time Diff (sec)
1 05/19/2016 14:52:05 76.09, -42.82 56.07 05/19/2016 14:50:55 76.08, -42.96 56.07 3.88 70
2 05/19/2016 15:42:47 -76.05, 124.39 123.98 05/19/2016 15:41:58 -76.05, 124.41 123.98 1.02 49
3 05/19/2016 16:33:28 76.02, -68.38 55.99 05/19/2016 16:32:56 76.04, -68.29 56.00 2.70 32
4 05/19/2016 17:24:09 -76.04, 98.99 124.01 05/19/2016 17:24:00 -76.04, 98.92 124.00 2.09 9
5 05/19/2016 18:14:50 76.00, -93.78 55.96 05/19/2016 18:14:58 76.03, -93.79 55.98 3.01 8
6 05/19/2016 19:05:31 -76.02, 73.59 124.04 05/19/2016 19:06:01 -75.99, 73.58 124.07 2.48 30
7 05/19/2016 19:56:12 75.99,-119.19 55.92 05/19/2016 19:56:59 75.98,-119.12 55.92 1.91 47
8 05/19/2016 20:46:53 -76.00, 48.18 124.08 05/19/2016 20:48:03 -75.99, 48.09 124.08 2.64 70
9 05/19/2016 21:37:45 75.45,-146.24 55.37 05/19/2016 21:38:50 75.48,-142.91 55.42 93.01 65
10 05/30/2016 05:57:19 76.12, 90.99 54.21 05/30/2016 05:56:04 76.12, 90.84 54.21 3.91 75
11 05/30/2016 06:48:01 -76.10,-101.78 125.82 05/30/2016 06:47:05 -76.10,-101.83 125.82 1.33 56
12 05/30/2016 07:38:42 76.06, 65.43 54.14 05/30/2016 07:38:05 76.07, 65.51 54.15 2.84 37
13 05/30/2016 08:29:23 -76.08,-127.18 125.85 05/30/2016 08:29:06 -76.05,-127.16 125.88 2.90 17
14 05/30/2016 09:20:04 76.04, 40.02 54.11 05/30/2016 09:20:07 76.07, 40.02 54.14 3.40 3
15 05/30/2016 10:10:45 -76.06,-152.59 125.88 05/30/2016 10:11:08 -76.05,-152.66 125.89 2.14 23
16 05/30/2016 11:01:26 76.02, 14.62 54.08 05/30/2016 11:02:08 76.02, 14.69 54.08 1.87 42
17 05/30/2016 11:52:07 -76.04,-177.99 125.91 05/30/2016 11:53:09 -76.00,-177.99 125.95 4.21 62
18 05/30/2016 12:42:55 75.68, -11.85 53.72 05/30/2016 12:44:03 75.70, -9.71 53.76 59.15 68




NCC Satellite Simultaneous Nadir Overpasses (SNOs) Prediction Service
